Regional Weather Roundup
Issued by NWS

Home | Current Version | Previous Version | Graphics & Text | Print | Product List | Glossary On
Versions: 1 2 3 4 5 6 7 8 9 10 11 12 13 14 15 16 17 18 19 20 21 22 23 24 25 26 27 28 29 30 31 32 33 34 35 36 37 38 39 40 41 42 43 44 45 46 47 48 49 50
000
ASUS43 KMPX 261301
RWRMN
WEATHER ROUNDUP FOR MINNESOTA
NATIONAL WEATHER SERVICE TWIN CITIES/CHANHASSEN MN
800 AM CDT SUN MAR 26 2017


NOTE: "FAIR" INDICATES FEW OR NO CLOUDS BELOW 12,000 FEET WITH NO
SIGNIFICANT WEATHER AND/OR OBSTRUCTIONS TO VISIBILITY. N/A MEANS
CURRENT SKY AND/OR WEATHER CONDITIONS ARE NOT AVAILABLE.

MNZ060>063-068>070-261400-
   Twin Cities Metro

CITY           SKY/WX    TMP DP  RH WIND       PRES   REMARKS
TWIN CITIES    CLOUDY    37  33  85 VRB6      29.95S
ST PAUL        CLOUDY    36  35  96 N5        29.97R
CRYSTAL        CLOUDY    36  33  89 CALM      29.95S
BLAINE         CLOUDY    37  37 100 NE5       29.95  FOG
LAKEVILLE      CLOUDY    34  34 100 NE3       29.94S FOG
EDEN PRAIRIE   CLOUDY    37  34  89 NE3       29.94R FOG
SOUTH ST PAUL  CLOUDY    36  35  97 N3        29.95S FOG
LAKE ELMO      CLOUDY    36  36 100 NE3       29.96S FOG
$$
MNZ001>005-007-008-013>017-022>024-027-028-261400-
   Northwest Minnesota

CITY           SKY/WX    TMP DP  RH WIND       PRES   REMARKS
BEMIDJI        CLOUDY    32  31  96 SE3       29.99S
HALLOCK        CLOUDY    34  34 100 S10       29.95S FOG     WCI  26
ROSEAU         CLOUDY    34  30  86 S8        29.97S WCI  27
WARROAD        CLOUDY    32  28  86 S6        29.98S WCI  26
THIEF RVR FALL CLOUDY    33  30  88 S8        29.98F WCI  26
CROOKSTON      CLOUDY    34  34 100 S6        29.98F WCI  29
FOSSTON        CLOUDY    30  30 100 CALM      29.98F
DETROIT LAKES  CLOUDY    34  32  93 SE5       29.99S WCI  30
MOORHEAD       CLOUDY    34  32  93 CALM      29.99F FOG
PARK RAPIDS    CLOUDY    33  29  85 E5        29.98S WCI  29
MAHNOMEN       CLOUDY    33  30  90 SE3       29.98S
$$
MNZ006-009>011-018-025>026-261400-
   North Central Minnesota

CITY           SKY/WX    TMP DP  RH WIND       PRES   REMARKS
BAUDETTE       CLOUDY    32  29  88 SE7       29.98F WCI  26
FLAG ISLAND    CLOUDY    30  28  93 S14       29.97S WCI  20
INTL FALLS     CLOUDY    32  28  85 SE6       30.00F WCI  26
WASKISH        CLOUDY    32  30  93 CALM      30.00S
BIG FORK       CLOUDY    32  30  93 CALM      30.00S
LONGVILLE      CLOUDY    32  30  93 CALM      29.98F FOG
GRAND RAPIDS   CLOUDY    31  30  96 CALM      30.01S
CRANE LAKE     CLOUDY    30  28  93 CALM      30.04S
ORR            CLOUDY    30  28  93 CALM      29.98F
COOK           CLOUDY    30  28  93 CALM      30.01S
WALKER         CLOUDY    31  31  99 CALM      29.99S FOG
$$
MNZ012-019>021-037-261400-
   Northeast Minnesota

CITY           SKY/WX    TMP DP  RH WIND       PRES   REMARKS
DULUTH         FRZ DRZL  32  32 100 E8        29.98S FOG     WCI  25
ELY            CLOUDY    30  28  93 CALM      30.01S
HIBBING        CLOUDY    31  30  96 CALM      29.99S
EVELETH        CLOUDY    32  31  94 NE3       30.00F
DULUTH HARBOR  MIX PCPN  34  32  93 CALM      30.02S
TWO HARBORS    CLOUDY    36  30  80 NE6       29.99S HAZE
SILVER BAY     CLOUDY    34  32  93 NE5       29.99S FOG     WCI  30
GRAND MARAIS     N/A     34  31  88 NE6       30.03F WCI  29
G MARAIS ARPRT MIX PCPN  28  25  86 E5        29.99F WCI  23
$$
MNZ029>031-032-039>041-046>048-054>057-064-261400-
   West Central Minnesota

CITY           SKY/WX    TMP DP  RH WIND       PRES   REMARKS
FERGUS FALLS   CLOUDY    36  30  80 E6        30.01F
WHEATON        FOG       36  34  93 CALM      30.00S VSB 3/4
MORRIS         CLOUDY    36  36 100 NE6       29.96S
ALEXANDRIA     CLOUDY    34  30  85 NE5       29.97S WCI  30
ELBOW LAKE     CLOUDY    33  33  99 NE5       29.98S WCI  29
WADENA         CLOUDY    32  30  93 NE3       29.98S
GLENWOOD       CLOUDY    34  30  86 NE5       29.97S WCI  30
APPLETON       CLOUDY    37  36  93 CALM      29.97R FOG
BENSON         CLOUDY    37  30  75 E5        29.98S
ORTONVILLE     CLOUDY    36  34  93 NE3       29.97S FOG
MADISON        CLOUDY    37  37 100 N3        29.96S FOG
WILLMAR        CLOUDY    36  34  93 NE8       29.98S
$$
MNZ033>034-036-042>043-049>051-058-059-261400-
   Central Minnesota

CITY           SKY/WX    TMP DP  RH WIND       PRES   REMARKS
ST CLOUD       LGT RAIN  33  33 100 N5        29.98R FOG     WCI  29
SAUK CENTRE    CLOUDY    33  30  90 NE6       29.97S WCI  27
PAYNESVILLE      N/A     33  33 100 NE6       29.97S WCI  28
AITKIN         CLOUDY    34  30  86 NE3       29.98R FOG
PINE RIVER     CLOUDY    32  32 100 N3        30.02S
BRAINERD       CLOUDY    33  31  92 NE5       29.98S WCI  29
STAPLES        CLOUDY    34  28  80 N3        29.98S
LONG PRAIRIE   CLOUDY    32  30  93 CALM      29.97S
LITTLE FALLS   MIX PCPN  32  32 100 CALM      29.98F
LITCHFIELD     DRIZZLE   36  34  93 N6        29.97R
BUFFALO        LGT RAIN  34  33  94 N6        29.97S WCI  29
MAPLE LAKE     DRIZZLE   35  34  98 N6        29.97S WCI  30
HUTCHINSON     RAIN      36  35  99 N7        29.96S
$$
MNZ037-044-045-052-053-261400-
   East Central Minnesota

CITY           SKY/WX    TMP DP  RH WIND       PRES   REMARKS
PRINCETON      DRIZZLE   34  34 100 N6        29.98S WCI  29
MORA           MIX PCPN  32  30  93 CALM      30.00R
CAMBRIDGE      MIX PCPN  36  32  87 CALM      29.96R
RUSH CITY      DRIZZLE   33  32  96 N5        29.98S WCI  28
MOOSE LAKE     MIX PCPN  32  32 100 NE5       29.98S WCI  27
CLOQUET        CLOUDY    32  30  93 E5        29.98S FOG     WCI  27
MCGREGOR       CLOUDY    32  32 100 CALM      29.99S
$$
MNZ071>073-080-081-089-090-097-098-261400-
   Southwest Minnesota

CITY           SKY/WX    TMP DP  RH WIND       PRES   REMARKS
MONTEVIDEO     CLOUDY    36  36 100 E6        29.98S
GRANITE FALLS  CLOUDY    38  36  94 NE5       29.97S FOG
CANBY          FOG       37  37  99 CALM      29.97S VSB 3/4
MARSHALL       MIX PCPN  36  35  96 NE7       29.95S VSB 1
REDWOOD FALLS  CLOUDY    37  35  92 N5        29.95R FOG
OLIVIA         CLOUDY    34  32  93 NE8       29.96R WCI  27
PIPESTONE      FOG       36  34  93 E5        29.91S VSB 1/2
WINDOM         LGT RAIN  36  36 100 N5        29.92S
WORTHINGTON    FOG       35  32  88 N6        29.92  VSB 3/4 WCI  30
JACKSON        DRZL/FOG  34  34 100 NE7       29.92R VSB 1/4 WCI  28
TRACY          FOG       37  37 100 NE6       29.94S VSB 1/2
SLAYTON        FOG       34  34 100 N6        29.93S VSB 1/2 WCI  29
$$
MNZ065>067-074>077-082>085-091>093-261400-
   South Central Minnesota

CITY           SKY/WX    TMP DP  RH WIND       PRES   REMARKS
MANKATO        MIX PCPN  36  35  96 NE7       29.93F FOG
NEW ULM        CLOUDY    36  34  93 NE5       29.94R
ST JAMES       CLOUDY    36  36 100 CALM      29.94S FOG
FAIRMONT       CLOUDY    36  35  96 N8        29.92S FOG
GLENCOE        CLOUDY    37  37 100 N5        29.95R
FARIBAULT      FOG       36  36 100 N3        29.93S VSB 3/4
OWATONNA       FOG       36  34  93 NE5       29.92R VSB 1/2
WASECA         CLOUDY    34  32  93 N6        29.93S FOG     WCI  29
ALBERT LEA     DRZL/FOG  34  34 100 NE7       29.90S VSB 1/4 WCI  28
$$
MNZ078>079-086>088-094>096-261400-
   Southeast Minnesota

CITY           SKY/WX    TMP DP  RH WIND       PRES   REMARKS
ROCHESTER      FOG       34  34 100 NE8       29.89S VSB 1/2 WCI  27
RED WING       CLOUDY    36  36 100 E3        29.93S FOG
STANTON        FOG       36  34  94 N3        29.93R VSB 1/2
DODGE CENTER   FOG       34  34 100 NE7       29.90S VSB 1/2 WCI  28
WINONA         CLOUDY    36  34  93 CALM      29.93S
AUSTIN         CLOUDY    36  34  93 NE6       29.89S FOG
PRESTON        CLOUDY    34  33  96 NE7       29.89R FOG     WCI  28
$$
ABBREVIATIONS USED IN REMARKS
   TC - TEMPERATURES IN CELSIUS
  WCI - WIND CHILL INDEX
   HX - HEAT INDEX
  VSB - VISIBILITY
$$




USA.gov is the U.S. government's official web portal to all federal, state and local government web resources and services.